Probability
0 0 0 0 0 0 0 0 0 0 0 0 0 0 0 0 0 0 0 0 0 0 0 0 0 0 0 0 0 0 0 0 0 0 1 2 2 1
0 0 0 0 0 0 0 0 0 0 0 0 0 0 0 0 0 0 0 0 0 0 0 0 0 0 0 0 0 0 0 0 0 0 0 1 1 1
0 0 0 0 0 0 0 0 0 0 0 0 0 0 0 0 0 0 0 0 0 0 0 0 0 0 0 0 0 0 0 0 0 0 0 0 0 1
0 0 0 0 0 0 0 0 0 0 0 0 0 0 0 0 0 0 0 0 0 0 0 0 0 0 0 0 0 0 0 0 0 0 0 0 0 0
0 0 0 0 0 0 0 0 0 0 0 0 0 0 0 0 0 0 0 0 0 0 0 0 0 0 0 0 0 0 0 0 0 0 0 0 0 0
0 0 0 0 0 0 0 0 0 0 0 0 0 0 0 0 0 0 0 0 0 0 0 0 0 0 0 0 0 0 0 0 0 0 0 0 0 0
0 0 0 0 0 0 0 0 0 0 0 0 0 0 0 0 0 0 0 0 0 0 0 0 0 0 0 0 0 0 0 0 0 0 0 0 0 0
0 0 0 0 0 0 0 0 0 0 0 0 0 0 0 0 0 0 0 0 0 0 0 0 0 0 0 0 0 0 0 0 0 0 0 0 0 0
0 0 0 0 0 0 0 0 0 0 0 0 0 0 0 0 0 0 0 0 0 0 0 0 0 0 0 0 0 0 0 0 0 0 0 0 0 0
0 0 0 0 0 0 0 0 0 0 0 0 0 0 0 0 0 0 0 0 0 0 0 0 0 0 0 0 0 0 0 0 0 0 0 0 0 0
0 0 0 0 0 0 0 0 0 0 0 0 0 0 0 0 0 0 0 0 0 0 0 0 0 0 0 0 0 0 0 0 0 0 0 0 0 0
0 0 0 0 0 0 0 0 0 0 0 0 0 0 0 0 0 0 0 0 0 0 0 0 0 0 0 0 0 0 0 0 0 0 0 0 0 0
0 0 0 0 0 0 0 0 0 0 0 0 0 0 0 0 0 0 0 0 0 0 0 0 0 0 0 0 0 0 0 0 0 0 0 0 0 0
0 0 0 0 0 0 0 0 0 0 0 0 0 0 0 0 0 0 0 0 0 0 0 0 0 0 0 0 0 0 0 0 0 0 0 0 0 0
0 0 0 0 0 0 0 0 0 0 0 0 0 0 0 0 0 0 0 0 0 0 0 0 0 0 0 0 0 0 0 0 0 0 0 0 0 0
0 0 0 0 0 0 0 0 0 0 0 0 0 0 0 0 0 0 0 0 0 0 0 0 0 0 0 0 0 0 0 0 0 0 0 0 0 0
0 0 0 0 0 0 0 0 0 0 0 0 0 0 0 0 0 0 0 0 0 0 0 0 0 0 0 0 0 0 0 0 0 0 0 0 0 0
0 0 0 0 0 0 0 0 0 0 0 0 0 0 0 0 0 0 0 0 0 0 0 0 0 0 0 0 0 0 0 0 0 0 0 0 0 0
0 0 0 0 0 0 0 0 0 0 0 0 0 0 0 0 0 0 0 0 0 0 0 0 0 0 0 0 0 0 0 0 0 0 0 0 0 0
0 0 0 0 0 0 0 0 0 0 0 0 0 0 0 0 0 0 0 0 0 0 0 0 0 0 0 0 0 0 0 0 0 0 0 0 0 0
0 0 0 0 0 0 0 0 0 0 0 0 0 0 0 0 0 0 0 0 0 0 0 0 0 0 0 0 0 0 0 0 0 0 0 0 0 0
0 0 0 0 0 0 0 0 0 0 0 0 0 0 0 0 0 0 0 0 0 0 0 0 0 0 0 0 0 0 0 0 0 0 0 0 0 0
0 0 0 0 0 0 0 0 0 0 0 0 0 0 0 0 0 0 0 0 0 0 0 0 0 0 0 0 0 0 0 0 0 0 0 0 0 0
Wind_Speed
1 1 1 1 1 1 2 2 2 1 1 1 1 1 1 1 2 3 4 6 8 8 8 8 7 8 8 9 8 9 9 9 9 9 9 9 9 9
1 1 1 1 1 1 1 1 2 2 1 1 2 1 1 2 2 2 3 5 6 7 7 8 8 8 8 8 8 8 8 8 9 9 9 9 9 9
0 1 1 1 0 0 1 1 1 2 2 1 1 1 1 2 1 1 2 2 3 6 7 7 7 8 8 9 8 8 8 8 8 8 9 8 9 9
0 0 0 0 0 0 1 1 1 2 2 2 1 0 1 2 1 1 1 2 2 4 5 6 7 7 8 8 8 9 9 9 9 8 9 9 9 9
0 0 1 1 1 1 1 1 1 1 1 2 1 0 1 1 1 1 1 1 1 2 4 5 6 7 7 8 8 9 9 9 9 9 9 9 9 9
0 1 1 2 2 2 1 2 1 1 1 1 1 1 1 1 1 1 1 1 1 1 2 3 5 6 7 8 9 9 9 9 9 9 9 9 8 8
1 1 1 1 2 2 2 2 2 1 1 1 1 1 1 1 2 1 2 1 1 2 2 2 2 3 4 6 8 9 9 9 9 9 9 9 9 8
1 2 2 1 2 1 1 2 3 3 3 2 2 2 3 3 2 2 2 1 2 2 2 2 2 3 3 3 7 9 10 10 10 9 9 9 9 9
1 1 2 2 2 1 2 3 3 4 5 4 4 4 4 4 3 3 3 3 3 2 2 2 2 3 3 4 8 10 10 10 10 10 10 10 10 9
1 1 1 3 2 1 1 2 2 3 4 3 4 5 5 4 4 4 3 2 1 2 3 3 2 3 3 3 8 10 10 10 11 11 10 10 10 10
2 1 1 2 4 3 1 2 3 3 3 5 6 6 6 6 5 2 2 2 2 2 3 3 2 2 2 3 5 9 10 10 10 10 10 9 9 9
2 2 3 3 4 3 1 1 3 3 3 3 2 3 3 4 6 5 4 3 2 3 3 3 2 2 2 2 2 3 5 8 9 10 10 10 9 6
2 2 2 4 5 4 2 2 4 3 2 2 2 2 2 2 3 4 4 4 4 3 3 3 2 2 2 1 1 3 4 3 4 5 8 10 10 9
2 2 3 5 5 4 3 4 5 3 1 1 1 2 2 2 2 3 3 4 4 4 4 4 3 3 3 2 2 2 2 3 4 4 4 6 8 10
2 3 4 4 4 4 4 5 3 1 1 1 2 2 2 2 2 1 1 2 2 3 3 4 4 3 3 3 3 2 2 3 4 4 4 5 5 5
2 2 3 4 2 3 4 3 2 1 1 2 3 2 2 1 2 1 1 1 1 2 3 4 5 5 4 4 4 3 3 3 3 4 4 4 4 5
0 1 2 2 3 3 3 3 2 2 2 2 2 2 2 2 2 2 2 2 2 2 2 2 2 3 4 4 4 4 4 4 4 4 4 4 5 6
2 2 2 2 2 3 3 4 3 2 2 2 2 2 3 3 3 2 2 2 3 3 3 2 1 1 1 3 5 5 4 4 3 4 4 4 5 5
3 1 1 2 2 3 2 2 3 3 3 3 3 3 3 3 2 3 2 3 3 3 3 3 3 3 4 4 4 6 5 3 3 3 4 4 5 4
3 2 3 3 3 3 3 3 3 3 3 3 3 3 3 3 3 3 3 3 4 3 3 3 4 5 6 5 3 3 7 6 4 4 3 3 2 2
3 3 3 3 3 3 3 3 3 3 4 3 3 3 3 3 4 4 4 4 4 3 4 5 5 6 3 2 3 3 4 7 7 5 4 3 3 2
3 3 4 4 4 4 4 4 4 4 4 4 4 4 4 3 4 5 4 4 4 4 5 4 2 2 3 5 6 5 4 3 5 8 8 7 5 6
4 4 4 4 4 4 4 4 5 5 5 5 5 5 5 4 4 5 5 5 5 5 5 4 2 3 4 5 6 5 6 5 3 3 5 8 11 10
Wind_Direction
178 176 185 213 200 198 188 171 161 185 248 256 263 248 208 208 219 205 210 213 209 205 203 206 209 212 218 217 214 215 217 218 217 216 216 216 214 216
172 167 180 205 197 187 186 184 178 173 214 241 239 255 227 223 215 207 214 216 212 207 206 207 209 212 213 212 212 215 217 217 216 214 214 214 215 219
90 149 203 195 168 188 177 176 187 176 209 255 249 258 220 210 208 205 210 210 211 211 212 212 210 208 209 210 208 209 212 211 211 215 215 211 215 219
278 130 269 162 170 222 184 189 203 198 193 232 262 267 238 207 198 204 214 204 210 216 215 214 213 210 206 209 209 208 207 206 208 212 214 215 219 222
247 221 242 187 218 232 206 205 217 220 193 204 238 235 270 221 176 187 182 195 220 216 215 218 217 211 207 207 207 206 204 205 207 209 212 215 220 222
312 244 229 208 217 218 215 211 201 198 189 199 226 235 239 241 182 189 216 211 238 222 221 219 218 215 212 209 208 206 205 205 206 208 211 213 211 212
345 322 289 252 236 215 204 200 186 187 197 208 223 240 234 217 217 203 217 244 249 210 201 216 213 219 217 214 214 210 207 207 207 207 209 209 206 208
330 326 324 312 305 306 280 235 204 198 203 209 220 226 239 229 222 206 200 214 249 208 193 239 213 234 230 220 215 210 209 207 207 209 209 208 209 210
306 313 320 324 317 296 294 292 268 243 221 211 220 229 228 218 211 217 213 218 232 205 189 242 216 237 234 226 218 213 209 209 208 208 209 210 209 209
304 286 294 312 315 306 292 298 291 274 248 229 224 234 232 224 214 222 221 227 249 229 193 230 221 230 234 225 221 216 212 210 208 207 207 208 207 207
311 305 296 298 313 330 332 297 300 298 284 262 246 248 248 239 213 191 197 210 239 226 196 208 215 222 228 232 227 218 215 213 213 211 208 206 204 204
325 321 314 310 305 312 284 270 286 290 303 313 292 275 257 246 224 210 207 215 227 233 200 192 199 193 248 239 221 217 216 216 215 216 213 208 201 200
301 305 301 315 318 310 295 259 268 280 278 282 287 286 272 246 231 218 212 212 221 235 199 181 194 195 213 243 246 219 212 210 208 218 216 211 203 198
261 270 282 304 316 317 308 293 292 300 288 285 275 274 269 259 245 229 223 226 233 237 210 187 198 199 201 216 240 233 220 210 204 212 212 207 209 208
254 270 294 317 328 325 316 318 322 311 291 285 280 274 265 253 252 249 234 232 248 242 216 206 207 207 212 221 221 213 225 225 209 210 206 203 203 200
289 316 334 345 347 330 330 334 326 271 258 264 276 278 277 262 253 238 237 229 250 262 231 214 213 210 223 228 221 225 214 216 209 210 211 214 209 205
36 21 16 5 358 351 344 334 327 327 305 280 277 285 286 277 265 238 229 224 231 245 255 227 217 222 226 217 226 229 223 227 220 206 202 221 226 216
91 36 3 356 344 335 332 329 326 323 309 292 283 278 280 282 285 268 237 238 248 251 249 232 200 213 248 251 223 227 225 229 221 203 198 212 233 223
70 30 356 338 326 321 316 311 311 314 311 303 294 290 284 280 279 278 267 256 256 255 251 230 210 210 237 256 250 213 210 212 200 206 211 213 227 226
38 17 0 351 341 332 327 322 318 323 325 318 311 307 301 295 292 284 273 264 267 267 263 242 225 221 228 240 244 233 207 204 203 215 214 213 236 250
25 14 4 357 352 348 342 336 334 332 331 327 322 315 310 304 296 290 283 275 268 265 261 258 248 232 224 204 237 246 230 211 205 203 191 190 204 206
20 15 10 6 1 358 353 350 351 348 342 336 327 322 316 304 295 292 286 280 270 264 267 270 261 224 210 225 241 247 245 230 219 218 211 198 190 202
21 17 15 10 6 3 0 359 358 352 345 338 329 321 317 311 301 292 285 280 278 275 274 275 265 240 239 236 243 247 243 236 221 218 234 232 229 234